User: anonymous   Login
Location: Ash Swamp
(41.5170°N, 74.6157°W)
Time: 08:58:10
(UTC+00:00)
Language:

IRIDIUM 106 - Orbit

View from above orbital plane
View from above orbital plane
View from above satellite
View from above satellite

Ground track
Ground track

The orbit data is extracted from the following two-line orbital elements,

1 41917U 17003A   20265.92364582 +.00000081 +00000-0 +22032-4 0  9999
2 41917 086.3952 243.6148 0001977 079.3344 280.8074 14.34218601193034
Epoch (UTC): 21 September 2020 22:10:02
Eccentricity: 0.0001977
inclination: 86.3952°
perigee height: 776 km
apogee height: 779 km
right ascension of ascending node: 243.6148°
argument of perigee: 79.3344°
revolutions per day: 14.34218601
mean anomaly at epoch: 280.8074°
orbit number at epoch: 19303

The dashed part of the orbit path shows where the satellite is in the earth's shadow,  

DLR